Regional Weather Roundup
Issued by NWS

Home | Current Version | Previous Version | Text Only | Print | Product List | Glossary Off
Versions: 1 2 3 4 5 6 7 8 9 10 11 12 13 14 15 16 17 18 19 20 21 22 23 24 25 26 27 28 29 30 31 32 33 34 35 36 37 38 39 40 41 42 43 44 45 46 47 48 49 50

000
ASUS45 KABQ 252001
RWRNM
NEW MEXICO REGIONAL WEATHER ROUNDUP
NATIONAL WEATHER SERVICE ALBUQUERQUE NM
200 PM MDT THU AUG 25 2016

NOTE: "FAIR" MEANS FEW OR NO CLOUDS BELOW 12,000 FEET AGL WITH NO
       SIGNIFICANT WEATHER OR OBSTRUCTIONS TO VISION.

      THIS PRODUCT IS RELEASED AS TWO VERSIONS.  ONE VERSION NEAR
      THE TOP OF THE HOUR CONTAINING PRELIMINARY DATA FROM ALBUQUERQUE
      AND OTHER STATIONS.  A FINAL VERSION WITH ADDITIONAL DATA IS
      ISSUED ABOUT 10 MINUTES AFTER THE HOUR.

NMZ501-503-504-510>518-252100-
NORTHWEST PLATEAU/NORTHCENTRAL MOUNTAINS

CITY           SKY/WX    TMP DP  RH WIND       PRES   REMARKS
FARMINGTON     FAIR      78  33  19 MISG      30.17F
LOS ALAMOS     LGT RAIN  64  37  37 W23G30    30.34F
SANTA FE       FAIR      76  43  30 VRB6      30.25F THUNDER
TAOS           FAIR      72  43  35 W5        30.30F
ANGEL FIRE     PTSUNNY   66  36  32 SE5       30.37F

$$
NMZ402-403-502-505>509-252100-
WESTCENTRAL MOUNTAINS/SOUTHWEST MOUNTAINS

CITY           SKY/WX    TMP DP  RH WIND       PRES   REMARKS
GALLUP         PTSUNNY   76  37  24 NW9       30.25F
GRANTS         FAIR      71  36  28 W14       30.29F
SILVER CITY    CLOUDY    78  46  32 NE6       30.21S THUNDER

$$
NMZ407-409-411-412-252100-
SOUTHERN DESERTS

CITY           SKY/WX    TMP DP  RH WIND       PRES   REMARKS
DEMING         FAIR      87  46  24 NE12G18   30.12F
LAS CRUCES     FAIR      86  43  22 N3        30.14F
ALAMOGORDO     FAIR      82  48  30 W6        30.13F
T OR C         FAIR      84  40  21 CALM      30.15F

$$
NMZ519>523-252100-
CENTRAL VALLEYS/CENTRAL HIGHLANDS

CITY           SKY/WX    TMP DP  RH WIND       PRES   REMARKS
ALBUQUERQUE    PTSUNNY   79  45  29 CALM      30.20F
DOUBLE EAGLE   PTSUNNY   79  46  31 VRB5      30.23F
MORIARTY ARPT  FAIR      76  44  32 CALM      30.27F
CLINES CORNERS FAIR      74  44  34 VRB5      30.31F
BELEN          FAIR      81  41  24 N3        30.18F
SOCORRO        FAIR      85  34  16 E3        30.16F

$$
NMZ524>526-539-540-252100-
SOUTHCENTRAL MOUNTAINS

CITY           SKY/WX    TMP DP  RH WIND       PRES   REMARKS
RUIDOSO        NOT AVBL

$$
NMZ527>531-252100-
NORTHEAST HIGHLANDS/NORTHEAST PLAINS

CITY           SKY/WX    TMP DP  RH WIND       PRES   REMARKS
LAS VEGAS      FAIR      70  43  37 VRB3      30.30F
RATON          FAIR      74  42  31 VRB6      30.25F
CLAYTON        PTSUNNY   74  54  49 VRB3      30.23F

$$
NMZ532>537-252100-
EASTCENTRAL PLAINS

CITY           SKY/WX    TMP DP  RH WIND       PRES   REMARKS
TUCUMCARI      FAIR      80  55  42 SE7       30.16F
CANNON AFB     LGT RAIN  78  59  52 VRB6      30.17F
CLOVIS AIRPORT FAIR      79  61  53 SE9       30.17F

$$
NMZ028-029-538-252100-
SOUTHEAST PLAINS

CITY           SKY/WX    TMP DP  RH WIND       PRES   REMARKS
ROSWELL        FAIR      82  58  43 VRB5      30.12F
ARTESIA        FAIR      77  63  61 NE5       30.12F
CARLSBAD       FAIR      79  63  57 N9        30.10F
HOBBS          PTSUNNY   79  68  69 VRB5      30.14F


$$



USA.gov is the U.S. government's official web portal to all federal, state and local government web resources and services.